Regional Weather Roundup
Issued by NWS San Angelo, TX

Home | Current Version | Previous Version | Text Only | Print | Product List | Glossary On
Versions: 1 2 3 4 5 6 7 8 9 10 11 12 13 14 15 16 17 18 19 20 21 22 23 24 25 26 27 28 29 30 31 32 33 34 35 36 37 38 39 40 41 42 43 44 45 46 47 48 49 50
000
ASUS44 KSJT 231910
RWRSJT
WEST CENTRAL TEXAS REGIONAL WEATHER ROUNDUP
NATIONAL WEATHER SERVICE SAN ANGELO TX
200 PM CDT SUN APR 23 2017

NOTE: "FAIR" INDICATES FEW OR NO CLOUDS BELOW 12,000 FEET WITH NO
SIGNIFICANT WEATHER AND/OR OBSTRUCTIONS TO VISIBILITY.

TXZ049-054-064>066-071>073-076>078-098-099-113-114-127-128-139-140-
154-155-168>170-232000
...LOCATIONS ACROSS WEST CENTRAL TEXAS...

CITY           SKY/WX    TMP DP  RH WIND       PRES   REMARKS
SAN ANGELO     SUNNY     71  30  21 VRB5      30.17F
ABILENE        SUNNY     68  34  28 VRB6      30.17F
DYESS AFB      MOSUNNY   68  35  29 SE3       30.15F
JUNCTION       SUNNY     71  30  21 NE8       30.15F
SWEETWATER     SUNNY     66  31  27 S3        30.19F
BROWNWOOD      SUNNY     68  32  26 N12G18    30.15F
COLEMAN        CLEAR     68  33  27 CALM      30.16F
SONORA         SUNNY     68  30  24 NW7       30.21F
OZONA            N/A     68  32  26 CALM      30.20F
BRADY          NOT AVBL
$$

TEXAS PANHANDLE/OKLAHOMA PANHANDLE

CITY           SKY/WX    TMP DP  RH WIND       PRES   REMARKS
AMARILLO       SUNNY     66  34  30 S14G22    30.14F
BORGER         SUNNY     68  36  30 S9G23     30.12F
CANADIAN       SUNNY     68  32  26 S10       30.12F
DALHART        CLOUDY    66  35  31 SW20G31   30.09F
DUMAS          CLEAR     64  37  36 S17G25    30.10F
GUYMON         NOT AVBL
HEREFORD       CLEAR     66  35  32 SW12G23   30.14F
PAMPA          CLEAR     67  33  27 S8G16     30.14F
PERRYTON       SUNNY     65  39  39 S13G20    30.11F
$$

SOUTHERN PANHANDLE/SOUTH PLAINS/ROLLING PLAINS

CITY           SKY/WX    TMP DP  RH WIND       PRES   REMARKS
LUBBOCK        MOSUNNY   65  31  28 VRB5      30.16F
SNYDER         SUNNY    N/A N/A N/A SE3       30.18F
CHILDRESS      SUNNY     66  29  24 VRB3      30.16F
SEMINOLE       CLEAR     64  33  32 S6        30.18F
$$

PERMIAN BASIN

CITY           SKY/WX    TMP DP  RH WIND       PRES   REMARKS
MIDLAND        SUNNY     65  31  28 SW5       30.18F
ODESSA         SUNNY     65  32  29 SE5       30.19F
WINK           SUNNY     69  33  26 SE8G16    30.16F
$$

FAR WEST/SOUTHWEST MOUNTAINS/TRANS PECOS

CITY           SKY/WX    TMP DP  RH WIND       PRES   REMARKS
ALPINE         CLEAR     69  32  26 NE5       30.24F
DRYDEN           N/A     69  36  29 VRB5      30.16F
EL PASO        MOSUNNY   71  28  20 SE7G22    30.11F
FORT STOCKTON  SUNNY     67  33  28 CALM      30.17F
GUADALUPE PASS SUNNY     61  32  33 E14G22    30.22F
MARFA          SUNNY     69  31  24 S10       30.21F
PECOS          CLEAR     70  34  26 SE10G17   30.17F
$$

DALLAS/FORT WORTH METROPLEX

CITY           SKY/WX    TMP DP  RH WIND       PRES   REMARKS
DFW AIRPORT    SUNNY     72  39  30 N16G22    30.09F
FTW MEACHAM    SUNNY     72  43  35 N8        30.11F
DAL-EXECUTIVE  SUNNY     70  42  36 N10G21    30.10F
GRAND PRAIRIE  SUNNY     70  39  32 NW7G23    30.12F
ADDISON        SUNNY     68  41  37 N12G22    30.11F
MESQUITE       CLEAR     68  41  37 NW14      30.10F
LANCASTER      CLEAR     69  42  38 N9        30.11F
$$

NORTH CENTRAL TEXAS

CITY           SKY/WX    TMP DP  RH WIND       PRES   REMARKS
SHRMAN/DENISON CLEAR     68  42  39 N14       30.12F
GAINESVILLE    SUNNY     67  40  36 NW7G16    30.14F
BRIDGEPORT     CLEAR     68  35  29 N12G17    30.15F
DENTON         SUNNY     69  43  38 N12       30.12F
WAXAHACHIE     CLEAR     68  42  38 NW13      30.12F
GRANBURY       CLEAR     71  39  31 N13       30.13F
$$

WESTERN NORTH TEXAS

CITY           SKY/WX    TMP DP  RH WIND       PRES   REMARKS
WICHITA FALLS  SUNNY     70  36  28 W9G18     30.14F
VERNON         CLEAR     68  25  19 CALM      30.17F
BRECKENRIDGE   CLEAR     71  31  22 N6        30.14F
COMANCHE       SUNNY     67  39  35 NE7       30.15F
$$

CENTRAL AND SOUTH CENTRAL TEXAS

CITY           SKY/WX    TMP DP  RH WIND       PRES   REMARKS
AUSTIN/BERGSTM SUNNY     74  41  30 N13G23    30.10F
WACO           SUNNY     70  44  39 N15       30.11F
HILLSBORO      CLEAR     69  44  39 N16       30.12F
TEMPLE         SUNNY     70  42  36 N16G23    30.11F
KILLEEN-GRAY   SUNNY     70  39  32 N14G21    30.10F
FORT HOOD      SUNNY     69  38  32 N14G25    30.09F
GEORGETOWN     SUNNY     72  43  35 N15       30.12F
LAGO VISTA     FAIR      70  38  31 N6G18     30.13F
SAN MARCOS     SUNNY     73  39  29 NE9G23    30.13F
NEW BRAUNFELS  SUNNY     75  40  28 N14       30.11F
RANDOLPH AFB   SUNNY     71  40  32 N5        30.12F
SAN ANTONIO    SUNNY     73  39  29 NW10      30.13F
STINSON        SUNNY     75  40  28 NW9       30.11F
PLEASANTON     NOT AVBL
LA GRANGE      SUNNY     71  45  40 N15G22    30.08F
GIDDINGS       CLEAR     69  42  38 N10G16    30.11F
$$

EAST TEXAS

CITY           SKY/WX    TMP DP  RH WIND       PRES   REMARKS
PARIS          SUNNY     68  43  40 N15       30.08F
CLARKSVILLE    NOT AVBL
TYLER          SUNNY     69  42  37 NW14      30.06F
LONGVIEW       SUNNY     70  45  40 NW17G24   30.04F
PALESTINE      CLEAR     68  47  46 NW9G22    30.09F
NACOGDOCHES    MOSUNNY   68  46  45 N8G22     30.03F
$$

TEXAS HILL COUNTRY AND EDWARDS PLATEAU

CITY           SKY/WX    TMP DP  RH WIND       PRES   REMARKS
LLANO          CLEAR     72  37  28 N9G16     30.16F
HORSESHOE BAY  FAIR      70  38  31 N7        30.13F
KERRVILLE      SUNNY     69  40  34 N9G17     30.16F
FREDERICKSBRG  SUNNY     68  34  29 N6G17     30.15F
ROCKSPRINGS    CLEAR     64  36  34 CALM      30.19F
HONDO          SUNNY     74  40  29 N10       30.15F
UVALDE         CLEAR     69  42  36 CALM      30.16F
DEL RIO        NOT AVBL
$$

SOUTHEAST TEXAS

CITY           SKY/WX    TMP DP  RH WIND       PRES   REMARKS
COLLEGE STN    SUNNY     71  42  35 N18G25    30.08F
CALDWELL       NOT AVBL
CROCKETT       CLEAR     66  46  48 N9G17     30.09F
BRENHAM        SUNNY     70  45  40 N14       30.10F
HUNTSVILLE     SUNNY     68  44  42 NW13G18   30.07F
CONROE         MOSUNNY   68  47  46 N10G22    30.06F
HOUSTON BUSH   MOSUNNY   70  49  47 NW16G23   30.06F
HOUSTON HOBBY  MOSUNNY   70  46  42 N12       30.05F
PERLAND        SUNNY     71  44  37 NW10G20   30.06F
WHARTON        CLEAR     69  44  40 NW14G25   30.08F
$$

THE UPPER TEXAS COAST

CITY           SKY/WX    TMP DP  RH WIND       PRES   REMARKS
ORANGE         MOCLDY    69  51  52 NW10G18   30.03F
PORT ARTHUR    PTSUNNY   71  48  43 N15G21    30.01F
GALVESTON      SUNNY     70  50  49 N13G22    30.05F
ANGLETON       SUNNY     71  49  45 N15G22    30.05F
BAY CITY       CLEAR     70  49  48 NW8       30.07F
$$

TEXAS COASTAL BEND, RIO GRANDE PLAINS DEEP SOUTH TEXAS

CITY           SKY/WX    TMP DP  RH WIND       PRES   REMARKS
VICTORIA       SUNNY     74  44  34 NW14G22   30.09F
BEEVILLE       FAIR      74  45  35 N12G22    30.12F
ROCKPORT       SUNNY     77  43  29 N15       30.09F
PORT ARANSAS   CLEAR     72  43  34 N14G20    30.09F
PORT LAVACA    CLEAR     73  49  42 NW14G25   30.09F
CORPUS CHRISTI MOSUNNY   73  45  36 N16G25    30.11F
KINGSVILLE NAS SUNNY     74  43  32 NE10G18   30.12F
COTULLA        SUNNY     75  36  24 MISG      30.14F
LAREDO         SUNNY     74  41  30 NW8       30.15F
BROWNSVILLE    CLOUDY    71  48  43 N13       30.13F
PORT ISABEL    CLOUDY    72  47  40 N15G23    30.12F
HEBBRONVILLE   CLEAR     70  38  30 N7G16     30.15F
MCALLEN        SUNNY     78  44  29 N13       30.14F
WESLACO        SUNNY     73  46  37 N8G16     30.13F
FALFURRIAS     CLEAR     73  38  28 NW12      30.13F
EDINBURG       PTCLDY    75  39  27 N13G18    30.13F
$$




USA.gov is the U.S. government's official web portal to all federal, state and local government web resources and services.